Location: Namasale
(1.5000°N, 32.6167°E)
Time: 22:24:16
(UTC+00:00)

Transit 2A - Pass Details

Date: 20 April 2021
Orbit: 602 x 957 km, 66.7° (Epoch: 11 May)

Event Time Altitude Azimuth Distance (km) Brightness Sun altitude
Rises 15:02:35 0° 343° (NNW) 3,037 9.5 11.5°
Reaches altitude 10° 15:04:48 10° 345° (NNW) 2,172 8.8 11.0°
Maximum altitude 15:09:45 75° 71° (ENE) 787 6.1 9.8°
Drops below altitude 10° 15:15:17 10° 156° (SSE) 2,419 8.3 8.4°
Sets 15:17:52 0° 157° (SSE) 3,411 9.0 7.8°
